Starlink deployment rail

Debris
NORAD ID: 47437 Int'l Des: 2021-006 Owner: SPXS Country: US
LEOCIRCULARRETROGRADESSO

Starlink deployment railについて

説明を読み込み中...

リアルタイム位置

3D地球を読み込み中...

次回通過

高度履歴

Altitude vs Time

uPlot chart will show altitude changes over time

軌道要素

1 47437U 21006AA 25308.83825201 .00005561 00000-0 20484-3 0 9999
2 47437 97.2579 350.5536 0007520 285.4667 74.5742 15.28204289265020
Epoch: Nov 4, 2025 • Age: 6 hours

現在のステータス

高度 499.1 km
速度 7.62 km/s
衛星直下点 -54.75°S, 88.02°E
打ち上げ日 Jan 24, 2021
運用期間 4.7 years
タイプ debris

技術仕様

分類 Component
質量 100.00 kg
乾燥質量 100.00 kg
総質量 100.00 kg
長さ 7.00 m
直径 0.02 m
スパン 7.00 m
形状 Cyl
製造者 SPXS
フェーズステータス In Orbit
所有者/国 SPXS/US

大規模コンステレーション

Loading constellations...